Wind_Speed
11 11 10 10 13 14 12 12 12 10 10 10 10 12 11 10 9 7 6 4 5 7 9 12 15 17 19 22 23 23 23 23 20 22 24 26 27 30 28 30 33 41 40
12 12 11 9 12 14 11 11 12 9 10 9 10 9 10 9 9 8 6 5 6 6 7 10 12 15 18 21 24 25 27 27 27 27 28 29 31 32 33 37 36 34 31
12 14 13 10 10 12 11 11 9 6 6 8 7 8 8 9 10 10 10 9 10 8 8 11 13 14 15 18 21 23 25 28 30 31 31 31 37 32 37 33 34 38 34
12 13 12 13 12 11 10 10 10 8 6 8 8 8 9 10 10 11 12 12 10 9 10 11 11 9 6 10 15 16 20 24 24 30 36 32 26 24 25 23 20 21 22
8 9 10 12 10 9 9 9 10 10 10 9 9 9 8 9 10 11 11 10 7 8 9 10 11 12 14 15 15 18 22 24 25 23 25 25 25 25 23 23 27 26 29
11 11 11 10 8 8 8 8 11 9 9 10 9 8 8 9 9 11 12 15 16 15 14 12 12 13 12 14 15 17 20 23 24 26 27 27 26 26 27 30 31 29 29
13 14 17 16 15 12 10 10 12 12 12 12 11 10 10 11 12 13 15 17 18 19 20 22 21 19 18 19 20 21 22 23 24 25 27 28 28 28 29 30 30 28 28
14 15 17 17 16 16 13 14 16 15 14 14 15 15 16 17 19 21 22 23 23 24 25 26 26 26 26 26 25 26 27 28 28 29 29 29 29 29 29 29 29 30 32
13 13 14 16 15 15 15 17 18 18 17 17 18 21 21 22 23 24 25 27 28 28 29 29 30 31 30 30 29 29 30 33 31 30 29 29 30 29 29 29 30 29 27
14 15 15 15 16 16 17 19 19 17 18 19 21 21 22 24 26 27 28 28 31 32 31 29 32 33 34 34 33 32 33 32 31 30 29 29 27 27 25 24 24 24 25
20 19 17 18 21 22 22 23 23 21 20 21 23 24 25 27 28 29 30 30 29 29 30 32 31 33 35 36 35 33 33 31 31 29 27 26 25 24 24 24 24 25 27
21 23 20 20 21 20 20 19 18 19 21 23 24 26 28 30 31 33 34 33 34 35 37 38 35 34 35 34 33 29 30 30 30 28 26 24 23 24 24 25 27 28 30
24 20 20 21 20 18 19 20 21 22 26 28 30 31 33 34 32 34 34 34 34 35 40 42 34 35 38 38 34 32 30 28 27 26 26 24 24 25 26 28 29 30 31
18 19 19 19 20 22 26 28 28 30 31 32 33 33 34 37 36 35 35 34 34 34 39 44 38 35 33 33 33 31 30 28 28 26 26 26 27 27 29 30 31 31 32
20 19 21 23 26 29 30 32 34 36 35 37 38 39 38 36 36 36 36 37 39 39 39 39 38 35 31 31 31 30 29 29 28 27 27 28 28 30 33 34 34 34 35
24 26 29 31 34 35 35 34 36 37 39 41 42 42 40 40 38 38 39 40 40 39 39 37 34 32 31 31 31 30 30 30 29 28 28 28 33 36 32 33 35 35 36
32 32 34 35 34 33 38 39 40 41 43 43 42 41 40 40 40 40 40 39 38 38 37 34 33 31 32 31 31 31 31 30 30 27 30 35 32 30 33 37 35 35 37
34 36 36 35 36 38 40 40 41 41 39 38 37 36 36 36 36 36 37 37 36 36 36 35 34 34 33 32 32 33 30 31 31 35 35 32 32 36 34 35 35 36 38
36 36 37 38 40 40 42 40 38 37 37 37 38 38 38 36 36 36 36 36 37 36 36 36 37 37 36 36 35 33 32 32 35 33 30 31 36 35 35 35 35 37 38
38 39 41 42 42 42 40 40 40 40 40 39 39 39 40 40 38 37 37 38 39 39 39 39 38 38 36 37 38 39 39 38 33 28 28 33 34 34 35 35 36 36 36
42 43 43 41 41 41 41 39 40 40 40 40 39 40 40 39 39 39 39 39 40 40 41 42 43 39 40 41 37 32 26 26 29 31 33 33 34 35 35 36 35 34 32
43 43 43 42 42 41 40 39 38 39 40 39 38 38 38 38 39 38 38 39 40 41 40 36 32 27 25 26 27 28 31 30 31 33 34 34 35 36 36 35 34 33 31
44 43 42 43 40 39 39 38 35 34 33 34 36 37 38 38 39 39 37 35 35 37 36 33 29 28 29 30 33 30 32 34 34 35 36 37 38 38 37 35 34 32 31
41 41 38 38 36 34 32 30 31 31 34 36 37 34 32 33 35 34 33 33 31 31 32 34 32 34 36 35 35 36 38 38 39 39 39 40 40 39 38 36 34 32 32
38 35 34 34 34 33 34 35 34 37 38 36 30 29 31 30 28 28 30 31 31 32 33 33 34 37 39 41 42 42 42 43 44 43 43 41 41 40 38 36 35 34 33
33 33 33 32 33 33 35 35 35 35 31 32 33 36 37 39 39 38 38 38 37 38 39 40 42 43 43 45 46 46 47 46 46 45 44 42 40 39 38 37 37 36 35
Wind_Direction
316 317 314 298 303 315 331 334 337 329 325 346 357 358 1 1 342 340 342 326 288 271 266 267 267 263 257 258 261 263 265 275 271 264 263 261 265 270 276 273 274 264 259
298 314 303 304 300 308 330 327 332 334 336 336 349 357 2 1 2 353 342 344 327 304 271 262 267 270 271 270 270 271 272 274 275 275 277 276 279 282 286 277 275 266 271
303 309 299 301 290 303 317 316 316 325 347 346 342 349 351 353 354 348 344 349 342 306 294 296 291 276 278 280 276 278 282 283 279 278 281 284 277 277 280 283 274 269 270
310 308 303 292 284 290 300 310 303 300 318 327 332 337 337 339 334 330 325 324 324 320 310 316 324 284 289 293 274 280 286 300 290 283 279 292 279 275 285 287 287 283 270
323 315 298 277 283 292 291 301 309 294 289 300 313 318 327 340 346 347 341 336 335 333 326 323 315 306 304 304 297 287 290 284 283 284 279 283 281 283 290 291 292 287 283
311 308 300 304 317 314 320 312 305 310 302 298 296 309 323 332 337 338 338 341 338 333 326 318 312 307 297 291 288 282 281 284 283 283 285 285 287 285 281 281 285 288 288
309 309 312 312 314 311 310 307 301 299 308 308 303 304 314 316 317 319 321 320 319 316 313 311 309 303 298 296 296 295 292 289 285 282 281 282 284 284 284 286 288 289 290
297 301 310 310 309 306 312 307 303 301 295 294 294 292 293 298 300 303 307 310 311 309 307 305 305 305 302 303 305 306 306 304 297 293 288 285 286 285 287 289 289 290 292
302 308 309 307 302 301 303 304 304 301 301 297 291 292 294 295 295 295 298 300 304 304 302 301 301 300 303 300 299 306 308 307 300 296 289 284 283 283 283 285 286 288 289
316 312 309 310 306 300 301 301 301 300 300 300 299 297 298 294 291 291 292 296 300 299 295 292 294 296 299 300 304 307 307 302 297 291 288 288 285 286 286 285 286 287 289
303 303 305 306 308 302 296 290 291 298 303 304 305 303 300 299 297 296 296 294 294 292 289 293 296 296 301 299 299 305 300 298 294 290 286 284 283 285 285 287 290 292 295
295 287 294 303 308 309 308 306 302 307 311 312 308 303 299 297 295 297 294 295 295 294 293 288 288 300 306 302 299 298 296 295 291 286 284 281 282 283 287 292 296 297 299
291 285 294 297 305 312 315 313 316 319 314 310 307 306 304 303 298 297 297 295 293 295 294 282 295 310 301 303 300 296 291 287 283 281 281 282 282 286 289 293 296 297 299
302 301 292 293 301 305 303 304 308 311 311 311 313 305 301 296 296 295 292 292 293 292 290 296 302 303 298 294 290 285 282 280 278 277 277 278 283 287 294 297 297 298 302
294 295 292 292 296 297 298 303 307 310 309 307 306 305 299 294 290 291 293 293 294 295 296 297 299 301 294 285 281 280 279 278 276 275 277 282 286 295 297 295 299 303 307
292 294 292 294 296 300 304 308 306 306 307 307 305 301 295 292 292 292 293 294 295 294 294 295 295 293 289 284 281 280 278 276 275 276 279 285 292 292 294 301 304 307 311
283 289 293 294 298 300 303 306 305 304 303 301 299 297 296 294 294 294 294 295 295 295 294 292 290 287 283 281 283 282 281 279 277 277 286 289 286 294 298 297 301 309 311
285 290 293 295 298 301 303 302 301 300 299 298 297 298 298 297 297 297 297 296 297 296 293 290 286 283 282 282 282 280 274 274 274 279 284 284 286 292 295 300 306 310 312
285 289 293 297 299 301 300 301 301 299 297 298 298 300 300 300 300 298 296 297 297 296 292 288 287 288 287 284 278 271 269 269 269 282 281 284 288 292 297 302 307 310 311
285 289 294 295 296 296 297 298 297 296 295 297 298 300 302 302 299 298 297 297 296 294 292 289 287 286 279 274 268 270 277 285 283 274 282 287 288 294 299 303 306 308 308
286 289 292 291 292 295 297 295 294 293 294 296 296 295 298 299 297 295 294 295 294 291 290 288 281 276 275 279 282 283 273 273 273 281 281 283 290 295 299 301 302 302 303
288 289 288 289 293 295 295 297 295 294 292 294 295 298 296 295 295 295 294 295 295 296 293 288 282 284 283 282 280 279 277 281 282 281 283 287 291 294 297 297 297 297 297
286 286 289 292 293 295 295 295 296 296 297 298 298 297 298 299 297 294 291 293 294 295 292 282 278 283 283 280 279 283 283 281 282 283 285 288 289 291 292 292 292 290 291
284 289 291 293 292 291 294 295 298 302 302 304 304 303 304 306 304 300 299 297 295 298 291 286 283 279 280 284 287 286 285 285 285 286 286 286 287 287 286 286 286 284 284
288 290 289 289 291 292 290 294 293 300 302 301 296 299 302 305 305 305 304 302 299 296 294 291 287 286 286 287 286 284 283 284 285 285 285 285 283 283 282 281 280 278 279
282 285 290 292 293 291 291 297 298 299 296 298 300 302 304 303 300 298 297 295 293 291 288 286 285 284 283 283 283 284 285 286 285 285 283 281 279 277 277 276 275 273 275
Height
5872 5871 5870 5870 5869 5866 5862 5859 5856 5855 5854 5851 5848 5846 5844 5841 5840 5838 5837 5837 5837 5837 5838 5839 5840 5840 5841 5842 5843 5844 5844 5844 5844 5843 5843 5842 5842 5841 5841 5840 5839 5838 5837
5871 5870 5869 5868 5868 5865 5861 5860 5858 5855 5853 5852 5849 5846 5844 5842 5841 5840 5839 5837 5837 5837 5836 5836 5836 5836 5836 5837 5839 5839 5840 5840 5839 5838 5836 5836 5835 5833 5833 5832 5831 5829 5829
5868 5868 5867 5866 5866 5863 5862 5860 5858 5855 5853 5851 5850 5848 5846 5844 5842 5841 5840 5838 5837 5835 5835 5834 5833 5832 5832 5832 5833 5834 5835 5834 5834 5834 5832 5830 5828 5827 5825 5825 5823 5821 5822
5867 5867 5866 5866 5865 5862 5860 5859 5857 5855 5853 5852 5851 5848 5847 5844 5843 5841 5840 5839 5837 5836 5835 5833 5831 5830 5830 5828 5828 5828 5829 5829 5828 5827 5825 5822 5821 5820 5819 5817 5815 5814 5814
5866 5866 5866 5866 5864 5861 5859 5857 5856 5855 5853 5851 5850 5848 5846 5844 5843 5841 5840 5838 5837 5836 5834 5833 5831 5830 5828 5827 5825 5824 5823 5823 5822 5820 5819 5817 5815 5814 5813 5811 5810 5809 5807
5866 5864 5864 5863 5860 5858 5856 5855 5855 5853 5851 5850 5848 5846 5845 5843 5842 5840 5839 5837 5837 5836 5835 5833 5830 5828 5827 5825 5824 5822 5821 5819 5817 5815 5813 5811 5809 5807 5806 5804 5803 5801 5799
5862 5861 5861 5858 5857 5855 5854 5853 5852 5850 5848 5847 5846 5844 5843 5841 5840 5838 5837 5835 5833 5832 5830 5829 5827 5825 5823 5821 5819 5816 5814 5812 5809 5807 5805 5803 5801 5800 5799 5797 5795 5793 5791
5859 5859 5857 5855 5854 5852 5851 5850 5848 5846 5844 5844 5843 5841 5839 5838 5836 5834 5833 5831 5830 5828 5826 5824 5822 5819 5817 5815 5813 5810 5808 5805 5802 5799 5797 5795 5793 5791 5790 5788 5786 5784 5782
5856 5855 5854 5852 5851 5849 5848 5847 5844 5842 5841 5840 5839 5837 5836 5834 5832 5829 5827 5825 5824 5822 5820 5818 5815 5812 5810 5809 5806 5803 5801 5797 5794 5792 5789 5788 5786 5784 5782 5780 5778 5776 5775
5853 5852 5850 5849 5848 5846 5844 5843 5840 5838 5836 5835 5834 5832 5830 5828 5826 5823 5820 5819 5816 5814 5812 5810 5807 5805 5803 5800 5797 5795 5792 5790 5787 5784 5782 5779 5777 5776 5774 5772 5770 5769 5768
5850 5849 5846 5845 5844 5842 5840 5837 5835 5834 5831 5829 5827 5825 5822 5821 5820 5817 5814 5812 5810 5808 5805 5803 5800 5798 5796 5793 5789 5786 5783 5781 5779 5776 5774 5772 5770 5768 5767 5765 5763 5761 5760
5845 5843 5842 5841 5839 5836 5834 5831 5830 5828 5825 5823 5821 5819 5816 5814 5813 5811 5808 5804 5802 5800 5797 5795 5792 5789 5787 5785 5782 5777 5775 5771 5770 5769 5767 5765 5763 5762 5760 5758 5756 5754 5751
5837 5836 5836 5835 5834 5831 5830 5828 5826 5822 5821 5819 5816 5812 5809 5806 5804 5803 5800 5797 5794 5791 5788 5786 5782 5781 5779 5776 5772 5769 5766 5763 5762 5761 5760 5758 5757 5756 5753 5751 5748 5746 5743
5833 5832 5830 5829 5828 5826 5824 5822 5820 5817 5814 5810 5808 5806 5803 5800 5797 5794 5792 5789 5786 5783 5779 5777 5774 5772 5769 5767 5764 5760 5757 5755 5754 5753 5752 5751 5750 5748 5745 5743 5740 5737 5734
5829 5827 5826 5824 5822 5820 5817 5814 5811 5809 5806 5803 5800 5797 5794 5791 5789 5785 5782 5778 5775 5772 5770 5767 5765 5762 5760 5757 5754 5751 5749 5748 5747 5745 5744 5743 5741 5738 5735 5733 5730 5727 5722
5823 5821 5819 5816 5813 5811 5809 5805 5803 5800 5797 5793 5790 5787 5785 5782 5778 5775 5772 5769 5766 5763 5760 5758 5755 5752 5750 5748 5746 5743 5742 5740 5738 5738 5736 5734 5732 5730 5726 5723 5719 5716 5711
5815 5813 5810 5807 5805 5803 5800 5796 5794 5790 5787 5784 5780 5777 5774 5771 5768 5765 5762 5759 5756 5753 5750 5748 5745 5743 5742 5739 5737 5735 5733 5732 5731 5729 5727 5726 5723 5720 5716 5714 5709 5704 5701
5806 5803 5801 5799 5796 5793 5790 5787 5784 5780 5777 5774 5771 5768 5764 5761 5758 5756 5752 5749 5746 5743 5740 5738 5735 5733 5731 5729 5727 5726 5724 5722 5721 5719 5717 5715 5713 5711 5707 5703 5698 5693 5689
5796 5794 5792 5789 5786 5783 5780 5777 5773 5770 5768 5765 5762 5759 5755 5752 5749 5745 5743 5739 5736 5733 5730 5728 5725 5723 5720 5718 5717 5715 5714 5711 5709 5708 5707 5705 5704 5700 5696 5692 5687 5683 5679
5786 5784 5782 5779 5777 5774 5771 5767 5764 5761 5758 5755 5752 5749 5745 5742 5738 5735 5732 5729 5725 5722 5719 5717 5713 5710 5709 5706 5705 5704 5702 5700 5699 5698 5696 5695 5693 5689 5685 5681 5677 5674 5670
5777 5775 5772 5770 5767 5764 5761 5758 5755 5751 5748 5745 5741 5738 5735 5732 5729 5725 5722 5718 5714 5711 5707 5703 5700 5698 5695 5695 5695 5691 5691 5691 5690 5688 5686 5685 5682 5678 5675 5671 5667 5664 5661
5767 5765 5762 5760 5757 5754 5751 5748 5745 5741 5738 5735 5732 5728 5725 5721 5718 5714 5711 5707 5703 5700 5696 5692 5689 5687 5687 5687 5685 5684 5683 5681 5680 5678 5676 5673 5670 5667 5664 5660 5657 5654 5652
5757 5754 5752 5749 5746 5744 5741 5737 5734 5731 5728 5725 5722 5719 5715 5711 5707 5704 5701 5697 5694 5690 5687 5683 5680 5679 5679 5678 5677 5675 5673 5672 5669 5667 5664 5662 5659 5656 5653 5650 5647 5645 5643
5748 5744 5742 5739 5736 5733 5731 5728 5726 5724 5720 5717 5713 5709 5706 5703 5699 5696 5692 5688 5685 5682 5679 5676 5674 5672 5671 5668 5666 5664 5662 5660 5657 5655 5652 5649 5646 5644 5641 5638 5636 5634 5633
5737 5734 5732 5729 5727 5725 5723 5721 5718 5715 5711 5709 5706 5702 5698 5694 5690 5687 5684 5681 5677 5674 5672 5669 5667 5663 5660 5657 5654 5652 5650 5646 5644 5641 5638 5636 5633 5631 5629 5627 5625 5624 5622
5727 5725 5723 5721 5719 5717 5715 5713 5709 5705 5702 5699 5695 5691 5688 5684 5681 5677 5674 5671 5668 5664 5661 5658 5654 5652 5649 5645 5643 5639 5635 5632 5629 5627 5624 5622 5620 5618 5616 5614 5613 5612 5611